Precipitable_Water
1.81 1.84 1.75 1.66 1.72 1.89 1.93 1.84 1.88 2.13 2.10 1.91 1.65 1.41 1.38 1.38 1.35 1.29 1.27 1.23 1.10 1.06 1.09 1.04 1.01 1.19 1.37 1.78 1.99 1.93 1.87 1.82 1.65 1.71 1.86 1.90 1.78 1.70 1.66 1.60 1.63 1.65 1.72
1.66 1.65 1.60 1.57 1.59 1.73 2.09 2.22 2.14 2.07 1.97 1.80 1.64 1.42 1.31 1.34 1.37 1.31 1.23 1.20 1.11 1.03 0.98 0.93 0.90 0.97 0.96 1.19 1.48 1.72 1.84 1.90 1.77 1.64 1.78 1.82 1.81 1.80 1.74 1.63 1.63 1.66 1.68
1.51 1.45 1.48 1.58 1.74 1.63 2.16 2.09 2.02 1.91 1.70 1.55 1.42 1.36 1.31 1.24 1.21 1.19 1.12 1.06 1.03 1.00 0.96 0.98 0.99 0.98 0.89 0.94 1.03 1.22 1.55 1.71 1.84 1.79 1.66 1.78 1.80 1.91 1.82 1.74 1.64 1.66 1.72
1.52 1.44 1.52 1.59 1.72 1.79 2.05 2.01 1.78 1.64 1.47 1.29 1.18 1.17 1.17 1.16 1.16 1.13 1.06 0.97 0.90 0.86 0.88 0.93 0.94 0.97 0.98 0.99 0.94 0.95 1.09 1.31 1.48 1.63 1.71 1.73 1.78 1.85 1.81 1.69 1.60 1.65 1.67
1.58 1.55 1.56 1.67 1.83 1.90 1.80 1.65 1.43 1.24 1.21 1.25 1.17 1.11 1.08 1.06 1.05 0.98 0.92 0.86 0.81 0.76 0.79 0.84 0.93 1.01 0.99 1.01 1.02 0.92 0.88 0.90 1.07 1.24 1.42 1.62 1.65 1.70 1.64 1.73 1.71 1.68 1.65
1.44 1.39 1.48 1.48 1.55 1.51 1.46 1.39 1.34 1.29 1.29 1.26 1.19 1.11 1.08 1.11 1.08 0.99 0.93 0.87 0.82 0.77 0.69 0.75 0.82 0.93 1.01 1.00 0.97 1.02 0.98 0.81 0.77 0.85 1.03 1.25 1.53 1.70 1.73 1.64 1.73 1.65 1.48
1.24 1.25 1.23 1.25 1.25 1.27 1.27 1.25 1.26 1.25 1.25 1.23 1.18 1.14 1.07 1.04 1.02 1.00 0.96 0.93 0.86 0.81 0.76 0.77 0.80 0.86 0.96 1.00 1.01 1.04 0.99 0.97 0.97 0.88 0.79 0.96 1.21 1.58 1.67 1.62 1.72 1.77 1.68
1.21 1.22 1.24 1.26 1.23 1.23 1.22 1.21 1.22 1.22 1.16 1.07 1.05 1.03 1.00 0.97 0.96 0.93 0.88 0.83 0.81 0.79 0.77 0.85 0.89 0.87 0.87 0.95 0.97 0.98 1.05 0.97 0.93 0.91 0.92 0.90 1.07 1.45 1.67 1.57 1.74 1.86 1.91
1.19 1.21 1.19 1.20 1.18 1.16 1.14 1.12 1.06 1.00 0.95 0.92 0.92 0.87 0.84 0.84 0.87 0.83 0.78 0.76 0.74 0.71 0.76 0.86 0.94 0.97 0.96 0.92 0.95 0.95 0.97 1.01 1.05 0.98 0.96 1.04 1.03 1.14 1.57 1.73 1.60 1.68 1.67
1.18 1.16 1.16 1.11 1.02 0.95 0.86 0.81 0.78 0.73 0.68 0.66 0.63 0.65 0.65 0.62 0.66 0.66 0.70 0.74 0.72 0.71 0.74 0.80 0.89 0.97 1.02 1.00 1.01 1.00 0.93 0.92 0.96 1.00 0.99 0.98 1.04 1.05 1.10 1.41 1.65 1.64 1.67
1.08 1.02 0.89 0.76 0.61 0.54 0.49 0.49 0.49 0.50 0.52 0.53 0.54 0.55 0.59 0.62 0.65 0.68 0.72 0.75 0.74 0.74 0.74 0.72 0.82 0.94 1.05 1.07 1.08 1.07 0.96 1.03 1.04 1.06 1.02 0.98 0.98 1.01 1.05 1.05 1.20 1.44 1.57
0.78 0.67 0.55 0.52 0.50 0.48 0.44 0.42 0.41 0.40 0.39 0.37 0.38 0.37 0.40 0.46 0.47 0.50 0.59 0.69 0.77 0.76 0.74 0.82 0.88 0.89 0.96 1.08 1.14 1.16 1.12 1.11 1.04 1.00 1.02 1.00 0.98 0.99 1.04 1.11 1.16 1.26 1.32
0.53 0.49 0.46 0.45 0.43 0.42 0.41 0.40 0.38 0.39 0.39 0.38 0.38 0.39 0.41 0.45 0.46 0.46 0.48 0.48 0.61 0.67 0.74 0.79 0.84 0.90 0.95 0.96 1.02 1.05 1.08 1.06 0.96 0.87 0.89 0.98 1.06 1.09 1.18 1.20 1.24 1.27 1.28
0.44 0.42 0.41 0.38 0.36 0.37 0.38 0.40 0.40 0.41 0.42 0.42 0.40 0.39 0.42 0.44 0.45 0.48 0.49 0.49 0.49 0.52 0.63 0.71 0.78 0.82 0.94 1.10 1.11 1.10 1.14 1.08 1.02 0.94 0.88 0.91 1.03 1.07 1.07 1.12 1.08 1.13 1.13
0.43 0.43 0.42 0.40 0.38 0.39 0.41 0.42 0.42 0.44 0.48 0.47 0.46 0.47 0.45 0.45 0.51 0.58 0.58 0.57 0.54 0.53 0.53 0.58 0.65 0.73 0.75 0.90 0.97 1.08 1.03 1.06 1.03 0.99 0.94 0.89 0.90 0.96 1.02 1.08 1.08 1.07 0.98
0.40 0.40 0.41 0.42 0.40 0.41 0.39 0.38 0.43 0.46 0.50 0.54 0.57 0.56 0.56 0.58 0.59 0.61 0.65 0.68 0.65 0.62 0.55 0.51 0.49 0.59 0.67 0.75 0.85 0.93 0.97 1.05 1.04 1.01 0.96 0.91 0.86 0.86 0.93 1.03 1.08 1.04 0.97
0.41 0.41 0.44 0.44 0.40 0.38 0.38 0.38 0.37 0.45 0.53 0.58 0.62 0.64 0.66 0.66 0.68 0.71 0.76 0.81 0.81 0.78 0.65 0.55 0.49 0.49 0.53 0.64 0.75 0.83 0.90 1.00 1.03 0.98 0.96 0.94 0.90 0.91 0.92 0.96 1.00 0.99 1.00
0.45 0.46 0.46 0.45 0.42 0.41 0.43 0.43 0.44 0.44 0.45 0.53 0.66 0.71 0.72 0.73 0.75 0.78 0.80 0.79 0.79 0.84 0.81 0.73 0.60 0.54 0.52 0.54 0.66 0.77 0.85 0.94 0.96 0.97 0.97 0.95 0.90 0.89 0.92 1.00 0.98 0.95 0.98
0.46 0.46 0.48 0.48 0.47 0.45 0.45 0.45 0.45 0.46 0.49 0.55 0.64 0.72 0.77 0.80 0.83 0.82 0.78 0.71 0.69 0.74 0.79 0.77 0.75 0.65 0.59 0.57 0.59 0.76 0.82 0.86 0.93 0.94 0.95 0.94 0.91 0.93 0.92 0.96 1.02 1.00 0.99
0.47 0.49 0.49 0.47 0.45 0.43 0.43 0.43 0.44 0.46 0.50 0.56 0.64 0.71 0.81 0.86 0.83 0.81 0.76 0.71 0.66 0.68 0.76 0.78 0.78 0.78 0.74 0.72 0.70 0.76 0.84 0.84 0.91 0.95 0.96 0.96 0.96 1.00 0.97 0.98 1.00 0.98 1.00
0.46 0.45 0.45 0.46 0.44 0.42 0.41 0.43 0.46 0.50 0.57 0.62 0.69 0.81 0.88 0.85 0.85 0.86 0.85 0.81 0.78 0.69 0.65 0.73 0.81 0.81 0.75 0.70 0.68 0.74 0.85 0.87 0.93 0.98 1.00 1.03 1.03 1.02 1.06 1.07 1.06 1.05 1.05
0.45 0.44 0.44 0.43 0.42 0.40 0.42 0.48 0.49 0.58 0.64 0.69 0.79 0.87 0.88 0.89 0.90 0.90 0.90 0.89 0.87 0.86 0.73 0.73 0.79 0.84 0.83 0.77 0.79 0.85 0.91 0.93 0.97 1.00 1.04 1.06 1.08 1.11 1.12 1.11 1.08 1.08 1.08
0.44 0.43 0.42 0.40 0.41 0.42 0.46 0.50 0.58 0.68 0.73 0.81 0.84 0.84 0.87 0.88 0.89 0.90 0.91 0.90 0.90 0.90 0.86 0.79 0.81 0.84 0.87 0.85 0.89 0.92 0.93 0.97 1.02 1.06 1.07 1.09 1.04 1.07 1.10 1.09 1.07 1.05 1.04
0.44 0.42 0.40 0.39 0.41 0.45 0.49 0.56 0.69 0.77 0.84 0.85 0.84 0.84 0.86 0.87 0.85 0.91 0.92 0.93 0.94 0.94 0.95 0.91 0.89 0.88 0.88 0.91 0.94 0.99 1.03 1.05 1.06 1.08 1.09 1.02 1.04 1.10 1.11 1.10 1.10 1.08 1.06
0.41 0.38 0.38 0.41 0.45 0.49 0.55 0.68 0.77 0.85 0.86 0.85 0.85 0.85 0.87 0.88 0.89 0.93 0.95 0.97 0.98 0.97 0.97 0.98 0.95 0.95 0.96 0.95 0.95 0.98 1.00 1.00 1.03 1.06 1.10 1.06 1.06 1.07 1.15 1.15 1.16 1.12 1.07
0.38 0.37 0.41 0.46 0.50 0.57 0.67 0.75 0.84 0.85 0.86 0.87 0.90 0.91 0.92 0.93 0.95 0.97 0.97 0.97 0.99 0.99 0.99 1.02 1.01 0.96 0.97 0.96 0.97 0.97 0.97 0.94 0.93 0.96 1.01 1.03 1.08 1.12 1.13 1.15 1.19 1.19 1.13
Wind_Speed
25 27 26 25 26 23 21 18 17 15 12 11 10 10 11 13 13 14 15 16 17 17 17 18 19 19 19 18 19 19 20 20 20 19 20 19 22 22 21 22 23 24 23
24 26 31 34 42 42 25 21 17 14 12 13 13 14 15 16 18 19 20 20 21 21 22 22 22 21 21 21 20 20 19 21 21 21 20 20 23 25 24 23 24 25 25
19 21 24 29 36 37 21 15 13 13 12 14 16 17 19 21 22 24 24 25 25 25 25 25 24 23 23 23 23 22 21 22 22 22 21 22 23 24 27 27 27 27 27
20 13 11 8 3 18 14 12 12 14 15 18 20 22 23 25 26 27 28 29 29 30 30 29 29 28 27 26 26 26 26 25 24 25 24 24 24 27 28 29 29 29 29
7 9 8 5 5 9 10 12 14 17 19 21 24 26 27 27 28 30 31 32 33 33 32 32 32 32 31 30 29 28 29 29 28 27 27 26 25 25 28 29 31 30 31
6 9 9 9 9 12 15 17 19 21 24 27 28 30 30 30 31 33 34 35 35 35 35 34 34 34 34 34 33 32 31 30 31 30 29 29 28 28 28 29 32 32 31
7 8 10 12 14 16 19 21 23 26 28 29 31 32 32 33 34 35 36 37 38 37 37 37 36 36 36 36 36 35 34 33 32 32 32 32 32 30 30 29 30 32 33
11 12 13 15 17 20 21 23 26 27 29 31 31 32 33 34 35 37 38 39 39 38 38 37 38 38 38 38 38 38 37 36 34 34 34 34 33 32 31 30 30 31 33
14 16 18 20 22 23 25 27 29 30 31 32 33 35 36 37 38 40 41 41 41 41 40 39 38 39 39 40 40 40 39 38 37 36 35 34 34 35 33 32 31 31 30
18 19 21 23 25 27 28 29 30 32 33 34 36 37 38 39 40 40 41 41 42 43 43 42 42 41 40 40 40 40 39 39 38 37 36 35 35 35 36 36 34 33 32
21 23 25 26 27 27 27 28 30 31 33 33 35 36 37 38 39 39 39 40 41 41 42 42 42 42 41 41 41 41 41 39 39 38 37 36 35 35 35 36 37 37 36
23 23 23 24 25 26 27 28 30 32 34 35 37 38 38 39 40 40 39 40 40 39 39 39 39 40 42 41 40 40 40 39 38 38 37 36 36 36 36 36 37 37 38
21 22 22 23 25 26 28 31 32 34 36 38 38 39 40 41 41 41 41 41 40 40 39 38 38 37 37 38 39 39 38 37 37 36 37 37 37 37 37 37 37 37 37
22 23 24 26 27 29 31 32 34 36 38 39 40 41 43 43 42 42 41 41 41 41 40 39 39 37 37 37 38 38 37 38 38 38 37 36 37 37 38 38 38 37 37
23 24 26 27 28 30 32 34 36 38 40 42 43 43 44 44 43 43 43 45 44 44 43 41 39 38 36 38 39 39 40 39 39 38 37 37 37 37 38 38 39 39 39
24 26 27 29 31 33 35 37 38 41 43 43 43 43 44 45 46 47 48 47 46 44 43 41 40 39 37 36 37 38 39 39 39 38 38 38 38 39 39 38 39 40 39
25 27 29 31 33 34 36 38 41 42 42 42 42 42 44 45 47 46 43 42 42 41 41 41 40 39 38 37 36 37 38 38 38 38 38 37 38 38 38 39 40 40 39
27 29 31 32 34 35 38 41 43 44 45 44 42 42 42 43 42 39 38 40 38 37 37 38 39 39 38 38 36 36 36 35 36 36 36 36 36 37 37 38 39 40 38
28 30 32 33 36 38 40 43 44 46 46 45 43 41 40 39 36 35 35 33 31 31 32 33 36 37 37 37 36 34 34 34 34 34 33 33 33 35 36 38 39 39 39
29 31 33 35 37 39 41 43 45 47 46 43 40 38 37 34 33 32 31 30 30 30 29 30 31 32 31 31 31 31 31 32 32 31 30 30 30 31 33 35 35 36 37
30 32 34 36 38 40 42 43 46 46 43 40 37 35 34 33 32 30 29 28 27 27 28 29 28 30 31 31 30 29 29 30 30 30 29 28 27 28 28 30 32 32 33
31 33 35 37 39 40 41 43 46 43 40 37 34 32 33 31 29 27 27 26 26 25 25 25 24 25 27 28 27 27 25 25 27 27 27 27 27 27 27 27 28 29 31
31 33 36 37 38 39 41 44 42 38 36 33 31 30 29 28 27 27 25 24 23 21 20 18 18 20 23 25 25 25 25 24 24 22 22 25 26 27 26 26 27 27 28
32 34 35 36 37 39 42 41 37 35 31 30 29 29 28 28 27 26 24 24 22 21 19 17 16 18 21 23 25 25 25 25 25 25 25 25 23 26 27 26 27 28 28
31 33 34 36 38 40 40 35 33 28 28 28 28 26 26 25 24 24 24 24 23 21 19 18 16 17 19 22 24 25 26 26 26 25 25 24 24 25 25 26 26 27 28
31 33 34 36 39 38 33 30 26 25 25 24 26 25 24 24 24 24 22 21 21 20 20 18 17 17 19 21 22 23 24 25 26 26 26 25 25 25 27 27 27 26 27
Wind_Direction
249 252 252 252 252 268 248 237 245 254 256 254 258 265 273 282 287 289 290 291 291 290 288 287 283 279 276 274 270 272 262 258 261 262 260 256 244 242 244 241 240 240 239
257 263 259 262 263 273 238 245 243 244 246 260 267 274 280 284 287 288 289 289 289 288 288 286 283 279 275 271 271 268 264 261 260 260 260 253 249 245 244 244 243 242 241
269 274 279 280 272 223 233 233 232 239 252 264 272 278 282 285 286 287 287 288 287 286 285 282 280 277 274 272 268 266 265 263 261 259 261 257 254 247 245 246 246 245 244
258 284 301 315 87 194 235 228 239 252 263 271 277 281 282 284 285 285 286 286 286 285 282 279 276 273 272 271 268 265 263 263 261 259 259 260 258 250 248 247 248 246 245
250 275 288 305 249 239 241 251 257 263 271 277 280 283 284 284 284 285 286 286 285 284 282 278 274 271 269 267 267 266 263 261 260 259 259 258 258 254 251 249 247 247 245
279 284 284 280 267 265 267 271 272 275 278 281 283 284 284 284 285 285 286 286 285 284 281 278 274 270 268 265 264 263 263 261 259 258 257 257 258 256 254 253 248 246 245
298 295 290 286 282 280 280 281 282 283 283 284 285 285 285 285 285 285 286 286 285 283 281 277 274 270 267 264 263 262 261 259 258 258 257 255 255 256 254 254 249 245 246
296 294 293 292 291 290 289 288 287 287 288 288 288 287 288 287 287 287 287 286 285 283 280 277 273 269 266 264 262 260 260 258 258 258 256 255 254 254 253 252 251 250 251
297 296 296 295 294 294 293 292 292 291 290 290 289 289 289 289 288 288 288 286 284 282 280 277 274 271 267 263 261 259 258 257 257 256 255 255 253 251 251 251 251 249 249
296 296 295 296 295 294 293 292 291 291 290 290 290 289 289 289 288 287 286 284 282 281 278 276 273 271 267 262 260 258 256 257 256 256 254 254 253 252 250 249 249 248 249
295 296 297 298 297 296 295 295 294 294 294 294 293 293 292 292 290 289 287 284 283 282 279 276 271 269 267 263 258 257 256 256 255 254 254 253 251 251 250 249 248 247 248
298 299 300 301 301 300 300 300 300 299 297 296 296 296 295 292 291 289 287 284 283 280 279 277 275 271 265 261 258 256 255 254 253 253 253 252 251 250 250 249 248 249 250
301 303 305 304 304 304 305 304 303 302 300 299 297 296 295 293 291 288 286 284 282 280 278 276 276 273 268 260 256 254 254 253 253 252 252 252 252 250 250 249 249 250 251
300 303 304 304 306 309 309 308 307 305 302 300 299 297 296 295 293 288 286 285 283 280 278 274 272 271 265 261 256 254 253 253 253 253 253 253 252 251 249 248 248 249 251
301 302 303 304 306 308 309 310 311 310 306 303 301 300 298 296 294 291 287 285 282 280 276 272 269 267 265 261 257 254 252 253 253 253 252 252 252 251 250 248 248 249 250
300 301 303 305 306 308 310 311 312 312 310 305 303 301 300 297 296 293 290 285 281 278 273 269 266 264 262 261 258 254 252 252 253 253 253 253 253 251 250 249 248 247 248
301 302 304 306 308 309 311 312 312 313 312 309 306 303 302 300 300 297 291 287 284 278 269 265 263 261 260 260 258 254 252 252 252 252 253 253 253 251 251 249 248 247 246
304 305 306 308 309 310 311 313 314 314 314 312 309 307 304 303 302 300 295 293 286 277 270 265 261 260 258 257 256 254 251 251 250 250 251 252 252 251 250 248 246 244 243
307 309 310 310 312 312 313 313 314 314 314 312 310 309 307 305 304 303 300 295 290 284 275 268 263 258 256 253 251 250 250 248 248 249 250 251 252 251 249 247 245 242 240
310 310 311 312 313 314 314 314 315 315 314 312 310 309 310 309 307 305 303 299 294 289 280 271 267 255 251 248 247 246 249 247 246 246 248 251 252 250 248 245 242 240 238
312 313 314 314 315 316 316 316 317 316 314 313 310 310 309 309 308 305 305 302 298 295 287 279 264 253 247 247 245 245 247 247 244 242 245 247 248 247 246 243 240 238 237
315 316 316 317 317 318 318 318 318 317 315 314 312 310 311 310 308 308 306 305 302 298 295 284 265 251 243 239 239 242 242 244 241 240 243 244 245 245 244 242 239 238 237
319 319 319 320 320 320 320 321 320 319 318 317 314 313 313 312 310 309 308 307 306 303 301 290 266 250 240 235 237 240 241 240 239 242 244 244 244 243 243 242 240 239 239
322 322 322 322 323 323 323 323 323 322 322 322 320 317 316 313 310 309 307 308 304 302 298 291 273 257 245 238 239 239 239 240 240 243 248 248 249 243 242 242 242 240 240
325 326 326 326 326 326 326 326 327 328 329 329 329 327 325 323 318 314 311 307 303 297 291 287 280 262 249 243 240 240 242 243 243 244 245 245 247 245 244 241 242 240 240
329 330 330 330 330 330 330 330 332 335 337 340 342 340 337 332 328 324 320 316 314 301 288 285 277 266 256 245 243 244 243 244 243 243 243 244 247 248 243 242 241 240 239